Time,TemperatureF,DewpointF,PressureIn,WindDirection,WindDirectionDegrees,WindSpeedMPH,WindSpeedGustMPH,Humidity,HourlyPrecipIn,Conditions,Clouds,dailyrainin,SoftwareType,DateUTC
2013-08-27 00:01:00,59.7,40.5,29.92,West,263,0.0,0.0,49,0.00,,CLR,0.00,VWS V14.01,2013-08-27 07:01:00,
2013-08-27 00:06:00,59.7,40.5,29.92,West,263,0.0,0.0,49,0.00,,CLR,0.00,VWS V14.01,2013-08-27 07:06:00,
2013-08-27 00:11:00,59.4,40.2,29.92,West,263,0.0,0.0,49,0.00,,CLR,0.00,VWS V14.01,2013-08-27 07:11:00,
2013-08-27 00:16:00,59.2,40.0,29.92,West,263,0.0,0.0,49,0.00,,CLR,0.00,VWS V14.01,2013-08-27 07:16:00,
2013-08-27 00:21:00,59.2,40.0,29.92,West,263,0.0,0.0,49,0.00,,CLR,0.00,VWS V14.01,2013-08-27 07:21:00,
2013-08-27 00:26:00,59.0,39.9,29.92,West,263,0.0,0.0,49,0.00,,CLR,0.00,VWS V14.01,2013-08-27 07:26:00,
2013-08-27 00:31:00,59.0,40.4,29.92,West,263,0.0,0.0,50,0.00,,CLR,0.00,VWS V14.01,2013-08-27 07:31:00,
2013-08-27 00:36:00,59.0,40.9,29.92,West,263,0.0,0.0,51,0.00,,CLR,0.00,VWS V14.01,2013-08-27 07:36:00,
2013-08-27 00:41:00,59.2,40.6,29.92,West,263,0.0,0.0,50,0.00,,CLR,0.00,VWS V14.01,2013-08-27 07:41:00,
2013-08-27 00:46:00,59.0,39.9,29.92,West,263,0.0,0.0,49,0.00,,CLR,0.00,VWS V14.01,2013-08-27 07:46:00,
2013-08-27 00:51:00,58.8,40.2,29.92,West,263,0.0,0.0,50,0.00,,CLR,0.00,VWS V14.01,2013-08-27 07:51:00,
2013-08-27 00:56:00,58.8,40.2,29.92,West,263,0.0,0.0,50,0.00,,CLR,0.00,VWS V14.01,2013-08-27 07:56:00,
2013-08-27 01:01:00,58.8,39.7,29.92,West,263,0.0,0.0,49,0.00,,FEW140,0.00,VWS V14.01,2013-08-27 08:01:00,
2013-08-27 01:06:00,58.6,39.5,29.92,West,263,0.0,0.0,49,0.00,,FEW140,0.00,VWS V14.01,2013-08-27 08:06:00,
2013-08-27 01:11:00,58.5,39.9,29.92,West,263,0.0,0.0,50,0.00,,FEW140,0.00,VWS V14.01,2013-08-27 08:11:00,
2013-08-27 01:16:00,58.1,39.1,29.92,West,263,0.0,0.0,49,0.00,,FEW140,0.00,VWS V14.01,2013-08-27 08:16:00,
2013-08-27 01:21:00,57.7,39.2,29.92,West,263,0.0,0.0,50,0.00,,FEW140,0.00,VWS V14.01,2013-08-27 08:21:00,
2013-08-27 01:26:00,57.7,39.8,29.92,West,263,0.0,0.0,51,0.00,,FEW140,0.00,VWS V14.01,2013-08-27 08:26:00,
2013-08-27 01:31:00,57.7,39.2,29.92,West,263,0.0,0.0,50,0.00,,FEW140,0.00,VWS V14.01,2013-08-27 08:31:00,
2013-08-27 01:36:00,57.7,38.7,29.92,West,263,0.0,0.0,49,0.00,,FEW140,0.00,VWS V14.01,2013-08-27 08:36:00,
2013-08-27 01:41:00,57.7,38.7,29.92,West,263,0.0,0.0,49,0.00,,FEW140,0.00,VWS V14.01,2013-08-27 08:41:00,
2013-08-27 01:46:00,57.6,39.6,29.92,West,263,0.0,0.0,51,0.00,,FEW140,0.00,VWS V14.01,2013-08-27 08:46:00,
2013-08-27 01:51:00,57.4,39.9,29.92,West,263,0.0,0.0,52,0.00,,FEW140,0.00,VWS V14.01,2013-08-27 08:51:00,
2013-08-27 01:56:00,57.6,40.6,29.92,West,263,0.0,0.0,53,0.00,,FEW140,0.00,VWS V14.01,2013-08-27 08:56:00,
2013-08-27 02:01:00,57.7,40.7,29.92,West,263,0.0,0.0,53,0.00,,FEW140,0.00,VWS V14.01,2013-08-27 09:01:00,
2013-08-27 02:06:00,57.7,40.7,29.92,West,263,0.0,0.0,53,0.00,,FEW140,0.00,VWS V14.01,2013-08-27 09:06:00,
2013-08-27 02:11:00,57.6,40.6,29.92,West,263,0.0,0.0,53,0.00,,FEW140,0.00,VWS V14.01,2013-08-27 09:11:00,
2013-08-27 02:16:00,57.6,40.6,29.92,West,263,0.0,0.0,53,0.00,,FEW140,0.00,VWS V14.01,2013-08-27 09:16:00,
2013-08-27 02:21:00,57.4,40.4,29.92,West,263,0.0,0.0,53,0.00,,FEW140,0.00,VWS V14.01,2013-08-27 09:21:00,
2013-08-27 02:26:00,57.2,40.2,29.92,West,263,0.0,0.0,53,0.00,,FEW140,0.00,VWS V14.01,2013-08-27 09:26:00,
2013-08-27 02:31:00,57.2,40.2,29.92,West,263,0.0,0.0,53,0.00,,FEW140,0.00,VWS V14.01,2013-08-27 09:31:00,
2013-08-27 02:36:00,56.8,40.4,29.92,West,263,0.0,0.0,54,0.00,,FEW140,0.00,VWS V14.01,2013-08-27 09:36:00,
2013-08-27 02:41:00,56.7,40.7,29.92,West,263,0.0,0.0,55,0.00,,FEW140,0.00,VWS V14.01,2013-08-27 09:41:00,
2013-08-27 02:46:00,56.7,41.2,29.92,West,263,0.0,0.0,56,0.00,,FEW140,0.00,VWS V14.01,2013-08-27 09:46:00,
2013-08-27 02:51:00,56.5,40.5,29.92,West,263,0.0,0.0,55,0.00,,FEW140,0.00,VWS V14.01,2013-08-27 09:51:00,
2013-08-27 02:56:00,56.1,40.7,29.92,West,263,0.0,0.0,56,0.00,,FEW140,0.00,VWS V14.01,2013-08-27 09:56:00,
2013-08-27 03:01:00,56.1,40.7,29.92,West,263,0.0,0.0,56,0.00,,FEW140,0.00,VWS V14.01,2013-08-27 10:01:00,
2013-08-27 03:06:00,55.9,40.5,29.92,West,263,0.0,0.0,56,0.00,,FEW140,0.00,VWS V14.01,2013-08-27 10:06:00,
2013-08-27 03:11:00,55.9,40.5,29.92,West,263,0.0,0.0,56,0.00,,FEW140,0.00,VWS V14.01,2013-08-27 10:11:00,
2013-08-27 03:16:00,55.8,40.8,29.92,West,263,0.0,0.0,57,0.00,,FEW140,0.00,VWS V14.01,2013-08-27 10:16:00,
2013-08-27 03:21:00,55.8,40.8,29.92,West,263,0.0,0.0,57,0.00,,FEW140,0.00,VWS V14.01,2013-08-27 10:21:00,
2013-08-27 03:26:00,55.8,41.2,29.92,West,263,0.0,0.0,58,0.00,,FEW140,0.00,VWS V14.01,2013-08-27 10:26:00,
2013-08-27 03:31:00,55.8,41.2,29.92,West,263,0.0,0.0,58,0.00,,FEW140,0.00,VWS V14.01,2013-08-27 10:31:00,
2013-08-27 03:36:00,55.9,41.8,29.92,West,263,0.0,0.0,59,0.00,,FEW140,0.00,VWS V14.01,2013-08-27 10:36:00,
2013-08-27 03:41:00,55.9,41.8,29.92,West,263,0.0,0.0,59,0.00,,FEW140,0.00,VWS V14.01,2013-08-27 10:41:00,
2013-08-27 03:46:00,55.9,41.8,29.92,West,263,0.0,0.0,59,0.00,,FEW140,0.00,VWS V14.01,2013-08-27 10:46:00,
2013-08-27 03:51:00,55.9,41.8,29.92,West,263,0.0,0.0,59,0.00,,FEW140,0.00,VWS V14.01,2013-08-27 10:51:00,
2013-08-27 03:56:00,55.9,41.8,29.92,West,263,0.0,0.0,59,0.00,,FEW140,0.00,VWS V14.01,2013-08-27 10:56:00,
2013-08-27 04:01:00,55.8,41.7,29.92,West,263,0.0,0.0,59,0.00,,FEW140,0.00,VWS V14.01,2013-08-27 11:01:00,
2013-08-27 04:06:00,55.4,41.3,29.92,West,263,0.0,0.0,59,0.00,,FEW140,0.00,VWS V14.01,2013-08-27 11:06:00,
2013-08-27 04:11:00,55.2,41.6,29.92,West,263,0.0,0.0,60,0.00,,FEW140,0.00,VWS V14.01,2013-08-27 11:11:00,
2013-08-27 04:16:00,55.2,41.6,29.92,West,263,0.0,0.0,60,0.00,,FEW140,0.00,VWS V14.01,2013-08-27 11:16:00,
2013-08-27 04:21:00,55.0,41.0,29.92,West,263,0.0,0.0,59,0.00,,FEW140,0.00,VWS V14.01,2013-08-27 11:21:00,
2013-08-27 04:26:00,54.7,41.1,29.92,West,263,0.0,0.0,60,0.00,,FEW140,0.00,VWS V14.01,2013-08-27 11:26:00,
2013-08-27 04:31:00,54.5,41.3,29.92,West,263,0.0,0.0,61,0.00,,FEW140,0.00,VWS V14.01,2013-08-27 11:31:00,
2013-08-27 04:35:00,54.3,41.6,29.92,West,263,0.0,0.0,62,0.00,,FEW140,0.00,VWS V14.01,2013-08-27 11:35:00,
2013-08-27 04:40:00,54.1,41.0,29.92,West,263,0.0,0.0,61,0.00,,FEW140,0.00,VWS V14.01,2013-08-27 11:40:00,
2013-08-27 04:45:00,54.0,40.4,29.92,West,263,0.0,0.0,60,0.00,,FEW140,0.00,VWS V14.01,2013-08-27 11:45:00,
2013-08-27 04:50:00,54.0,40.8,29.92,West,263,0.0,0.0,61,0.00,,FEW140,0.00,VWS V14.01,2013-08-27 11:50:00,
2013-08-27 04:55:00,53.6,40.1,29.92,West,263,0.0,0.0,60,0.00,,FEW140,0.00,VWS V14.01,2013-08-27 11:55:00,
2013-08-27 05:00:00,53.4,39.9,29.92,West,263,0.0,0.0,60,0.00,,FEW140,0.00,VWS V14.01,2013-08-27 12:00:00,
2013-08-27 05:05:00,53.1,39.6,29.92,West,263,0.0,0.0,60,0.00,,FEW140,0.00,VWS V14.01,2013-08-27 12:05:00,
2013-08-27 05:10:00,53.1,39.6,29.92,West,263,0.0,0.0,60,0.00,,FEW140,0.00,VWS V14.01,2013-08-27 12:10:00,
2013-08-27 05:15:00,53.2,40.2,29.92,West,263,0.0,0.0,61,0.00,,FEW140,0.00,VWS V14.01,2013-08-27 12:15:00,
2013-08-27 05:20:00,53.2,40.2,29.92,West,263,0.0,0.0,61,0.00,,FEW140,0.00,VWS V14.01,2013-08-27 12:20:00,
2013-08-27 05:25:00,53.6,40.5,29.92,West,263,0.0,0.0,61,0.00,,FEW140,0.00,VWS V14.01,2013-08-27 12:25:00,
2013-08-27 05:30:00,53.4,39.9,29.92,West,263,0.0,0.0,60,0.00,,FEW140,0.00,VWS V14.01,2013-08-27 12:30:00,
2013-08-27 05:35:00,53.4,39.9,29.92,West,263,0.0,0.0,60,0.00,,FEW140,0.00,VWS V14.01,2013-08-27 12:35:00,
2013-08-27 05:40:00,53.4,40.3,29.92,West,263,0.0,0.0,61,0.00,,FEW140,0.00,VWS V14.01,2013-08-27 12:40:00,
2013-08-27 05:45:00,53.6,42.1,29.92,West,263,0.0,0.0,65,0.00,,FEW140,0.00,VWS V14.01,2013-08-27 12:45:00,
2013-08-27 05:50:00,54.0,44.0,29.92,ENE,66,0.0,4.0,69,0.00,,FEW140,0.00,VWS V14.01,2013-08-27 12:50:00,
2013-08-27 05:55:00,54.3,44.8,29.92,NE,42,0.0,0.0,70,0.00,,FEW140,0.00,VWS V14.01,2013-08-27 12:55:00,
2013-08-27 06:00:00,54.5,44.9,29.92,East,90,0.0,0.0,70,0.00,,FEW140,0.00,VWS V14.01,2013-08-27 13:00:00,
2013-08-27 06:05:00,54.7,45.1,29.92,SSW,204,0.0,0.0,70,0.00,,FEW140,0.00,VWS V14.01,2013-08-27 13:05:00,
2013-08-27 06:10:00,54.9,45.7,29.92,South,182,0.0,0.0,71,0.00,,FEW140,0.00,VWS V14.01,2013-08-27 13:10:00,
2013-08-27 06:15:00,55.0,45.8,29.92,NE,55,2.2,2.2,71,0.00,,FEW140,0.00,VWS V14.01,2013-08-27 13:15:00,
2013-08-27 06:20:00,55.2,45.6,29.92,SSW,205,2.2,2.2,70,0.00,,FEW140,0.00,VWS V14.01,2013-08-27 13:20:00,
2013-08-27 06:25:00,55.2,45.6,29.92,SSE,154,0.0,3.6,70,0.00,,FEW140,0.00,VWS V14.01,2013-08-27 13:25:00,
2013-08-27 06:30:00,55.4,45.4,29.92,SSW,212,0.0,0.0,69,0.00,,FEW140,0.00,VWS V14.01,2013-08-27 13:30:00,
2013-08-27 06:35:00,55.4,45.4,29.92,SSE,163,2.7,3.1,69,0.00,,FEW140,0.00,VWS V14.01,2013-08-27 13:35:00,
2013-08-27 06:40:00,55.6,45.2,29.92,South,187,0.0,2.7,68,0.00,,FEW140,0.00,VWS V14.01,2013-08-27 13:40:00,
2013-08-27 06:45:00,55.8,45.0,29.92,SSE,155,4.0,4.0,67,0.00,,FEW140,0.00,VWS V14.01,2013-08-27 13:45:00,
2013-08-27 06:50:00,55.9,45.2,29.95,SSE,162,2.7,3.1,67,0.00,,FEW140,0.00,VWS V14.01,2013-08-27 13:50:00,
2013-08-27 06:55:00,56.3,45.1,29.95,SSE,148,3.1,3.1,66,0.00,,FEW140,0.00,VWS V14.01,2013-08-27 13:55:00,
2013-08-27 07:00:00,58.3,46.6,29.95,ENE,72,0.0,2.7,65,0.00,,FEW140,0.00,VWS V14.01,2013-08-27 14:00:00,
2013-08-27 07:05:00,58.6,44.4,29.95,SSE,153,0.0,2.2,59,0.00,,FEW140,0.00,VWS V14.01,2013-08-27 14:05:00,
2013-08-27 07:10:00,58.1,42.0,29.95,ENE,61,0.0,0.0,55,0.00,,FEW140,0.00,VWS V14.01,2013-08-27 14:10:00,
2013-08-27 07:15:00,57.9,42.3,29.95,ENE,78,2.7,2.7,56,0.00,,FEW140,0.00,VWS V14.01,2013-08-27 14:15:00,
2013-08-27 07:20:00,57.7,41.7,29.95,East,85,2.2,3.6,55,0.00,,FEW140,0.00,VWS V14.01,2013-08-27 14:20:00,
2013-08-27 07:25:00,57.6,41.5,29.95,East,85,2.7,3.1,55,0.00,,FEW140,0.00,VWS V14.01,2013-08-27 14:25:00,
2013-08-27 07:30:00,57.7,42.2,29.95,East,87,0.0,0.0,56,0.00,,FEW140,0.00,VWS V14.01,2013-08-27 14:30:00,
2013-08-27 07:35:00,58.1,42.5,29.95,East,101,2.7,2.7,56,0.00,,FEW140,0.00,VWS V14.01,2013-08-27 14:35:00,
2013-08-27 07:40:00,58.1,41.6,29.95,ESE,102,3.1,3.6,54,0.00,,FEW140,0.00,VWS V14.01,2013-08-27 14:40:00,
2013-08-27 07:45:00,58.3,41.7,29.95,ESE,102,0.0,0.0,54,0.00,,FEW140,0.00,VWS V14.01,2013-08-27 14:45:00,
2013-08-27 07:50:00,58.5,41.9,29.92,ESE,102,2.7,2.7,54,0.00,,FEW140,0.00,VWS V14.01,2013-08-27 14:50:00,
2013-08-27 07:55:00,58.8,42.2,29.92,ESE,102,0.0,0.0,54,0.00,,FEW140,0.00,VWS V14.01,2013-08-27 14:55:00,
2013-08-27 08:00:00,59.0,41.9,29.92,ESE,103,0.0,0.0,53,0.00,,FEW140,0.00,VWS V14.01,2013-08-27 15:00:00,
2013-08-27 08:05:00,59.7,42.1,29.95,ESE,102,0.0,0.0,52,0.00,,FEW120,0.00,VWS V14.01,2013-08-27 15:05:00,
2013-08-27 08:10:00,61.3,42.6,29.95,ESE,103,3.6,3.6,50,0.00,,FEW120,0.00,VWS V14.01,2013-08-27 15:10:00,
2013-08-27 08:15:00,62.4,41.9,29.95,ESE,102,2.7,2.7,47,0.00,,FEW120,0.00,VWS V14.01,2013-08-27 15:15:00,
2013-08-27 08:20:00,63.1,40.9,29.95,ESE,102,0.0,0.0,44,0.00,,FEW120,0.00,VWS V14.01,2013-08-27 15:20:00,
2013-08-27 08:25:00,64.0,42.9,29.95,ESE,102,0.0,0.0,46,0.00,,FEW120,0.00,VWS V14.01,2013-08-27 15:25:00,
2013-08-27 08:30:00,65.3,42.8,29.95,ESE,102,0.0,0.0,44,0.00,,FEW120,0.00,VWS V14.01,2013-08-27 15:30:00,
2013-08-27 08:35:00,66.2,43.1,29.95,ESE,102,2.2,2.2,43,0.00,,FEW120,0.00,VWS V14.01,2013-08-27 15:35:00,
2013-08-27 08:40:00,66.7,42.9,29.95,ESE,102,0.0,0.0,42,0.00,,FEW120,0.00,VWS V14.01,2013-08-27 15:40:00,
2013-08-27 08:45:00,66.9,40.5,29.95,ENE,75,2.7,3.6,38,0.00,,FEW120,0.00,VWS V14.01,2013-08-27 15:45:00,
2013-08-27 08:50:00,67.3,40.8,29.95,ENE,68,3.6,4.0,38,0.00,,FEW120,0.00,VWS V14.01,2013-08-27 15:50:00,
2013-08-27 08:55:00,67.6,41.2,29.95,ENE,61,3.6,3.6,38,0.00,,FEW120,0.00,VWS V14.01,2013-08-27 15:55:00,
2013-08-27 09:00:00,67.8,41.3,29.95,East,79,3.6,4.5,38,0.00,,FEW110,0.00,VWS V14.01,2013-08-27 16:00:00,
2013-08-27 09:05:00,68.0,40.1,29.95,ENE,70,2.2,3.1,36,0.00,,FEW110,0.00,VWS V14.01,2013-08-27 16:05:00,
2013-08-27 09:10:00,68.4,41.1,29.95,ENE,72,2.7,3.6,37,0.00,,FEW110,0.00,VWS V14.01,2013-08-27 16:10:00,
2013-08-27 09:15:00,68.7,40.7,29.95,ENE,78,3.6,4.9,36,0.00,,FEW110,0.00,VWS V14.01,2013-08-27 16:15:00,
2013-08-27 09:20:00,69.1,40.3,29.95,ENE,78,0.0,0.0,35,0.00,,FEW110,0.00,VWS V14.01,2013-08-27 16:20:00,
2013-08-27 09:25:00,69.4,39.9,29.95,ENE,72,0.0,0.0,34,0.00,,FEW110,0.00,VWS V14.01,2013-08-27 16:25:00,
2013-08-27 09:30:00,69.8,40.2,29.95,ENE,71,2.7,2.7,34,0.00,,FEW110,0.00,VWS V14.01,2013-08-27 16:30:00,
2013-08-27 09:35:00,70.2,39.7,29.95,ENE,72,3.6,3.6,33,0.00,,FEW110,0.00,VWS V14.01,2013-08-27 16:35:00,
2013-08-27 09:40:00,70.3,39.1,29.95,ENE,75,2.7,4.0,32,0.00,,FEW110,0.00,VWS V14.01,2013-08-27 16:40:00,
2013-08-27 09:45:00,70.5,39.3,29.95,ENE,63,2.7,2.7,32,0.00,,FEW110,0.00,VWS V14.01,2013-08-27 16:45:00,
2013-08-27 09:50:00,71.1,40.5,29.95,East,80,2.7,3.6,33,0.00,,FEW110,0.00,VWS V14.01,2013-08-27 16:50:00,
2013-08-27 09:55:00,71.6,40.2,29.95,ENE,63,2.7,2.7,32,0.00,,FEW110,0.00,VWS V14.01,2013-08-27 16:55:00,
2013-08-27 10:00:00,72.0,41.3,29.95,ENE,72,0.0,0.0,33,0.00,,FEW110,0.00,VWS V14.01,2013-08-27 17:00:00,
2013-08-27 10:05:00,72.3,40.8,29.95,ENE,68,2.7,2.7,32,0.00,,FEW100,0.00,VWS V14.01,2013-08-27 17:05:00,
2013-08-27 10:10:00,72.7,41.2,29.95,ENE,73,0.0,3.1,32,0.00,,FEW100,0.00,VWS V14.01,2013-08-27 17:10:00,
2013-08-27 10:15:00,73.2,40.0,29.95,ENE,61,2.2,2.7,30,0.00,,FEW100,0.00,VWS V14.01,2013-08-27 17:15:00,
2013-08-27 10:20:00,73.4,38.3,29.95,ENE,63,3.1,3.1,28,0.00,,FEW100,0.00,VWS V14.01,2013-08-27 17:20:00,
2013-08-27 10:25:00,73.8,40.4,29.95,ENE,63,0.0,0.0,30,0.00,,FEW100,0.00,VWS V14.01,2013-08-27 17:25:00,
2013-08-27 10:30:00,74.3,40.0,29.95,NE,39,2.7,3.1,29,0.00,,FEW100,0.00,VWS V14.01,2013-08-27 17:30:00,
2013-08-27 10:35:00,74.5,38.3,29.95,ENE,73,3.6,3.6,27,0.00,,FEW100,0.00,VWS V14.01,2013-08-27 17:35:00,
2013-08-27 10:40:00,74.5,38.3,29.95,ENE,73,0.0,0.0,27,0.00,,FEW100,0.00,VWS V14.01,2013-08-27 17:40:00,
2013-08-27 10:45:00,74.8,39.6,29.95,East,95,0.0,2.7,28,0.00,,FEW100,0.00,VWS V14.01,2013-08-27 17:45:00,
2013-08-27 10:50:00,75.4,39.1,29.92,SSW,203,3.1,3.1,27,0.00,,FEW100,0.00,VWS V14.01,2013-08-27 17:50:00,
2013-08-27 10:55:00,75.6,37.3,29.92,SSE,167,0.0,0.0,25,0.00,,FEW100,0.00,VWS V14.01,2013-08-27 17:55:00,
2013-08-27 11:00:00,76.1,39.7,29.92,ENE,58,0.0,0.0,27,0.00,,FEW100,0.00,VWS V14.01,2013-08-27 18:00:00,
2013-08-27 11:05:00,76.5,38.1,29.92,East,101,0.0,0.0,25,0.00,,FEW065,0.00,VWS V14.01,2013-08-27 18:05:00,
2013-08-27 11:10:00,76.5,39.1,29.92,ENE,61,2.7,2.7,26,0.00,,FEW065,0.00,VWS V14.01,2013-08-27 18:10:00,
2013-08-27 11:15:00,76.5,38.1,29.92,NE,42,0.0,0.0,25,0.00,,FEW065,0.00,VWS V14.01,2013-08-27 18:15:00,
2013-08-27 11:20:00,76.5,38.1,29.92,NE,43,0.0,0.0,25,0.00,,FEW065,0.00,VWS V14.01,2013-08-27 18:20:00,
2013-08-27 11:25:00,76.6,38.2,29.92,NE,42,0.0,0.0,25,0.00,,FEW065,0.00,VWS V14.01,2013-08-27 18:25:00,
2013-08-27 11:30:00,76.6,36.1,29.92,NE,55,4.0,4.0,23,0.00,,FEW065,0.00,VWS V14.01,2013-08-27 18:30:00,
2013-08-27 11:35:00,76.6,37.2,29.92,NNW,330,2.2,2.7,24,0.00,,FEW065,0.00,VWS V14.01,2013-08-27 18:35:00,
2013-08-27 11:40:00,76.6,37.2,29.92,East,89,3.1,4.0,24,0.00,,FEW065,0.00,VWS V14.01,2013-08-27 18:40:00,
2013-08-27 11:45:00,76.8,38.4,29.92,NW,316,0.0,2.7,25,0.00,,FEW065,0.00,VWS V14.01,2013-08-27 18:45:00,
2013-08-27 11:50:00,76.8,37.3,29.92,WNW,291,0.0,2.2,24,0.00,,FEW065,0.00,VWS V14.01,2013-08-27 18:50:00,
2013-08-27 11:55:00,77.0,36.4,29.92,NW,309,2.2,2.2,23,0.00,,FEW065,0.00,VWS V14.01,2013-08-27 18:55:00,
2013-08-27 12:00:00,77.2,36.5,29.92,NNE,24,3.6,3.6,23,0.00,,FEW065,0.00,VWS V14.01,2013-08-27 19:00:00,
2013-08-27 12:05:00,77.2,35.4,29.89,NNE,33,0.0,0.0,22,0.00,,FEW065,0.00,VWS V14.01,2013-08-27 19:05:00,
2013-08-27 12:10:00,77.0,34.1,29.89,NNE,29,2.2,2.2,21,0.00,,FEW065,0.00,VWS V14.01,2013-08-27 19:10:00,
2013-08-27 12:15:00,77.4,35.6,29.89,NNE,33,2.7,5.4,22,0.00,,FEW065,0.00,VWS V14.01,2013-08-27 19:15:00,
2013-08-27 12:20:00,77.5,34.6,29.89,SSW,206,4.0,4.0,21,0.00,,FEW065,0.00,VWS V14.01,2013-08-27 19:20:00,
2013-08-27 12:25:00,77.9,34.9,29.89,SW,232,0.0,2.7,21,0.00,,FEW065,0.00,VWS V14.01,2013-08-27 19:25:00,
2013-08-27 12:30:00,78.3,35.2,29.89,WSW,253,0.0,4.9,21,0.00,,FEW065,0.00,VWS V14.01,2013-08-27 19:30:00,
2013-08-27 12:35:00,78.3,35.2,29.89,NE,54,5.4,5.4,21,0.00,,FEW065,0.00,VWS V14.01,2013-08-27 19:35:00,
2013-08-27 12:40:00,78.1,37.3,29.89,SW,215,2.7,2.7,23,0.00,,FEW065,0.00,VWS V14.01,2013-08-27 19:40:00,
2013-08-27 12:45:00,78.1,35.0,29.89,NE,34,3.6,5.8,21,0.00,,FEW065,0.00,VWS V14.01,2013-08-27 19:45:00,
2013-08-27 12:50:00,78.1,35.0,29.89,NE,45,2.7,4.9,21,0.00,,FEW065,0.00,VWS V14.01,2013-08-27 19:50:00,
2013-08-27 12:55:00,78.1,36.2,29.89,NE,40,0.0,4.0,22,0.00,,FEW065,0.00,VWS V14.01,2013-08-27 19:55:00,
2013-08-27 13:00:00,78.1,35.0,29.89,NE,44,0.0,0.0,21,0.00,,FEW065,0.00,VWS V14.01,2013-08-27 20:00:00,
2013-08-27 13:05:00,78.1,35.0,29.89,NE,51,2.2,2.2,21,0.00,,FEW070,0.00,VWS V14.01,2013-08-27 20:05:00,
2013-08-27 13:10:00,78.1,35.0,29.89,NE,51,0.0,0.0,21,0.00,,FEW070,0.00,VWS V14.01,2013-08-27 20:10:00,
2013-08-27 13:15:00,78.4,36.5,29.89,SSW,207,2.2,5.4,22,0.00,,FEW070,0.00,VWS V14.01,2013-08-27 20:15:00,
2013-08-27 13:20:00,79.0,35.8,29.89,SSW,212,0.0,3.6,21,0.00,,FEW070,0.00,VWS V14.01,2013-08-27 20:20:00,
2013-08-27 13:25:00,79.2,35.9,29.89,ENE,67,2.2,3.6,21,0.00,,FEW070,0.00,VWS V14.01,2013-08-27 20:25:00,
2013-08-27 13:30:00,79.0,35.8,29.89,ENE,66,3.1,3.1,21,0.00,,FEW070,0.00,VWS V14.01,2013-08-27 20:30:00,
2013-08-27 13:35:00,79.0,35.8,29.86,West,259,4.0,4.0,21,0.00,,FEW070,0.00,VWS V14.01,2013-08-27 20:35:00,
2013-08-27 13:40:00,78.8,35.6,29.86,West,265,7.6,7.6,21,0.00,,FEW070,0.00,VWS V14.01,2013-08-27 20:40:00,
2013-08-27 13:45:00,79.2,35.9,29.86,West,271,0.0,0.0,21,0.00,,FEW070,0.00,VWS V14.01,2013-08-27 20:45:00,
2013-08-27 13:50:00,79.5,36.2,29.86,West,271,0.0,2.7,21,0.00,,FEW070,0.00,VWS V14.01,2013-08-27 20:50:00,
2013-08-27 13:55:00,79.5,36.2,29.86,WNW,302,3.6,4.0,21,0.00,,FEW070,0.00,VWS V14.01,2013-08-27 20:55:00,
2013-08-27 14:00:00,79.7,36.3,29.86,WNW,301,2.7,5.4,21,0.00,,FEW070,0.00,VWS V14.01,2013-08-27 21:00:00,
2013-08-27 14:05:00,80.1,36.7,29.86,WNW,298,0.0,2.2,21,0.00,,FEW070,0.00,VWS V14.01,2013-08-27 21:05:00,
2013-08-27 14:10:00,80.2,36.8,29.86,WNW,300,3.1,3.1,21,0.00,,FEW070,0.00,VWS V14.01,2013-08-27 21:10:00,
2013-08-27 14:15:00,80.4,37.0,29.86,WNW,300,2.7,2.7,21,0.00,,FEW070,0.00,VWS V14.01,2013-08-27 21:15:00,
2013-08-27 14:20:00,80.2,36.8,29.86,West,280,3.1,4.0,21,0.00,,FEW070,0.00,VWS V14.01,2013-08-27 21:20:00,
2013-08-27 14:25:00,80.2,36.8,29.86,NE,55,3.6,3.6,21,0.00,,FEW070,0.00,VWS V14.01,2013-08-27 21:25:00,
2013-08-27 14:30:00,80.1,36.7,29.86,East,82,0.0,0.0,21,0.00,,FEW070,0.00,VWS V14.01,2013-08-27 21:30:00,
2013-08-27 14:35:00,80.1,36.7,29.86,West,270,4.0,6.3,21,0.00,,FEW070,0.00,VWS V14.01,2013-08-27 21:35:00,
2013-08-27 14:40:00,80.1,35.4,29.86,SSW,201,2.2,2.2,20,0.00,,FEW070,0.00,VWS V14.01,2013-08-27 21:40:00,
2013-08-27 14:45:00,80.1,36.7,29.86,NW,318,0.0,0.0,21,0.00,,FEW070,0.00,VWS V14.01,2013-08-27 21:45:00,
2013-08-27 14:50:00,80.4,35.7,29.86,NW,310,3.6,3.6,20,0.00,,FEW070,0.00,VWS V14.01,2013-08-27 21:50:00,
2013-08-27 14:55:00,80.8,36.0,29.86,WSW,241,0.0,2.2,20,0.00,,FEW070,0.00,VWS V14.01,2013-08-27 21:55:00,
2013-08-27 15:00:00,80.8,36.0,29.86,NE,48,3.6,4.0,20,0.00,,FEW070,0.00,VWS V14.01,2013-08-27 22:00:00,
2013-08-27 15:05:00,81.0,36.2,29.83,East,90,2.2,4.0,20,0.00,,FEW070,0.00,VWS V14.01,2013-08-27 22:05:00,
2013-08-27 15:10:00,81.5,36.6,29.83,NE,43,6.3,6.3,20,0.00,,FEW070,0.00,VWS V14.01,2013-08-27 22:10:00,
2013-08-27 15:15:00,81.1,36.3,29.83,East,96,0.0,0.0,20,0.00,,FEW070,0.00,VWS V14.01,2013-08-27 22:15:00,
2013-08-27 15:20:00,81.1,36.3,29.83,NE,55,3.6,4.9,20,0.00,,FEW070,0.00,VWS V14.01,2013-08-27 22:20:00,
2013-08-27 15:25:00,81.5,36.6,29.83,SSW,202,2.2,2.7,20,0.00,,FEW070,0.00,VWS V14.01,2013-08-27 22:25:00,
2013-08-27 15:30:00,81.7,36.8,29.83,ENE,59,4.0,4.0,20,0.00,,FEW070,0.00,VWS V14.01,2013-08-27 22:30:00,
2013-08-27 15:35:00,81.7,36.8,29.83,NE,39,0.0,2.7,20,0.00,,FEW070,0.00,VWS V14.01,2013-08-27 22:35:00,
2013-08-27 15:40:00,81.9,36.9,29.83,NE,41,0.0,0.0,20,0.00,,FEW070,0.00,VWS V14.01,2013-08-27 22:40:00,
2013-08-27 15:45:00,82.2,37.2,29.83,North,357,0.0,2.7,20,0.00,,FEW070,0.00,VWS V14.01,2013-08-27 22:45:00,
2013-08-27 15:50:00,82.4,36.0,29.83,NW,316,2.2,2.7,19,0.00,,FEW070,0.00,VWS V14.01,2013-08-27 22:50:00,
2013-08-27 15:55:00,82.2,37.2,29.83,North,353,0.0,0.0,20,0.00,,FEW070,0.00,VWS V14.01,2013-08-27 22:55:00,
2013-08-27 16:00:00,81.9,36.9,29.83,NW,305,3.1,3.6,20,0.00,,SCT150,0.00,VWS V14.01,2013-08-27 23:00:00,
2013-08-27 16:05:00,81.3,36.5,29.83,WNW,288,3.1,3.1,20,0.00,,SCT150,0.00,VWS V14.01,2013-08-27 23:05:00,
2013-08-27 16:10:00,80.8,36.0,29.83,NE,35,3.1,4.0,20,0.00,,SCT150,0.00,VWS V14.01,2013-08-27 23:10:00,
2013-08-27 16:15:00,80.4,35.7,29.83,NE,39,2.7,5.4,20,0.00,,SCT150,0.00,VWS V14.01,2013-08-27 23:15:00,
2013-08-27 16:20:00,80.2,35.6,29.83,North,0,0.0,0.0,20,0.00,,SCT150,0.00,VWS V14.01,2013-08-27 23:20:00,
2013-08-27 16:25:00,80.1,35.4,29.83,WNW,302,0.0,0.0,20,0.00,,SCT150,0.00,VWS V14.01,2013-08-27 23:25:00,
2013-08-27 16:30:00,79.9,35.3,29.83,WNW,296,0.0,0.0,20,0.00,,SCT150,0.00,VWS V14.01,2013-08-27 23:30:00,
2013-08-27 16:35:00,79.7,35.1,29.80,WSW,252,3.6,3.6,20,0.00,,SCT150,0.00,VWS V14.01,2013-08-27 23:35:00,
2013-08-27 16:40:00,79.5,35.0,29.80,West,271,4.9,4.9,20,0.00,,SCT150,0.00,VWS V14.01,2013-08-27 23:40:00,
2013-08-27 16:45:00,79.5,35.0,29.80,NNE,21,3.6,3.6,20,0.00,,SCT150,0.00,VWS V14.01,2013-08-27 23:45:00,
2013-08-27 16:50:00,79.5,35.0,29.80,NE,38,3.6,3.6,20,0.00,,SCT150,0.00,VWS V14.01,2013-08-27 23:50:00,
2013-08-27 16:55:00,79.7,35.1,29.80,NE,47,3.1,5.4,20,0.00,,SCT150,0.00,VWS V14.01,2013-08-27 23:55:00,
2013-08-27 17:00:00,79.7,35.1,29.80,NW,321,0.0,2.2,20,0.00,,SCT150,0.00,VWS V14.01,2013-08-28 00:00:00,
2013-08-27 17:05:00,79.5,35.0,29.80,NE,39,3.1,3.1,20,0.00,,SCT150,0.00,VWS V14.01,2013-08-28 00:05:00,
2013-08-27 17:10:00,79.5,35.0,29.80,NNE,32,2.2,2.2,20,0.00,,SCT150,0.00,VWS V14.01,2013-08-28 00:10:00,
2013-08-27 17:15:00,79.2,34.7,29.80,NE,36,3.6,3.6,20,0.00,,SCT150,0.00,VWS V14.01,2013-08-28 00:15:00,
2013-08-27 17:20:00,79.2,34.7,29.80,NNE,29,2.2,2.2,20,0.00,,SCT150,0.00,VWS V14.01,2013-08-28 00:20:00,
2013-08-27 17:25:00,79.2,34.7,29.80,NNE,25,0.0,0.0,20,0.00,,SCT150,0.00,VWS V14.01,2013-08-28 00:25:00,
2013-08-27 17:30:00,79.3,34.8,29.80,East,83,2.2,2.7,20,0.00,,SCT150,0.00,VWS V14.01,2013-08-28 00:30:00,
2013-08-27 17:35:00,79.5,35.0,29.80,East,79,0.0,2.2,20,0.00,,SCT150,0.00,VWS V14.01,2013-08-28 00:35:00,
2013-08-27 17:40:00,79.3,34.8,29.80,ENE,65,4.0,4.0,20,0.00,,SCT150,0.00,VWS V14.01,2013-08-28 00:40:00,
2013-08-27 17:45:00,79.7,35.1,29.80,NE,45,2.2,2.7,20,0.00,,SCT150,0.00,VWS V14.01,2013-08-28 00:45:00,
2013-08-27 17:50:00,79.7,35.1,29.80,NNE,21,2.7,5.4,20,0.00,,SCT150,0.00,VWS V14.01,2013-08-28 00:50:00,
2013-08-27 17:55:00,79.7,35.1,29.80,NNE,14,0.0,0.0,20,0.00,,SCT150,0.00,VWS V14.01,2013-08-28 00:55:00,
2013-08-27 18:00:00,79.5,35.0,29.80,NE,41,0.0,0.0,20,0.00,,SCT150,0.00,VWS V14.01,2013-08-28 01:00:00,
2013-08-27 18:04:00,79.3,34.8,29.80,NE,38,0.0,2.2,20,0.00,,SCT150,0.00,VWS V14.01,2013-08-28 01:04:00,
2013-08-27 18:09:00,79.3,34.8,29.80,NE,38,0.0,0.0,20,0.00,,SCT150,0.00,VWS V14.01,2013-08-28 01:09:00,
2013-08-27 18:14:00,79.2,34.7,29.80,NE,42,3.1,3.6,20,0.00,,SCT150,0.00,VWS V14.01,2013-08-28 01:14:00,
2013-08-27 18:19:00,79.2,34.7,29.80,NE,47,2.2,2.2,20,0.00,,SCT150,0.00,VWS V14.01,2013-08-28 01:19:00,
2013-08-27 18:24:00,79.0,34.5,29.80,NE,47,0.0,0.0,20,0.00,,SCT150,0.00,VWS V14.01,2013-08-28 01:24:00,
2013-08-27 18:29:00,78.8,34.4,29.80,NNE,29,4.5,4.5,20,0.00,,SCT150,0.00,VWS V14.01,2013-08-28 01:29:00,
2013-08-27 18:34:00,78.6,34.2,29.80,NE,34,4.0,5.4,20,0.00,,SCT150,0.00,VWS V14.01,2013-08-28 01:34:00,
2013-08-27 18:39:00,78.3,33.9,29.80,ENE,57,3.6,4.0,20,0.00,,SCT150,0.00,VWS V14.01,2013-08-28 01:39:00,
2013-08-27 18:44:00,77.9,33.6,29.80,ENE,61,3.1,3.1,20,0.00,,SCT150,0.00,VWS V14.01,2013-08-28 01:44:00,
2013-08-27 18:49:00,77.7,33.5,29.77,NNE,32,4.9,4.9,20,0.00,,SCT150,0.00,VWS V14.01,2013-08-28 01:49:00,
2013-08-27 18:54:00,77.5,33.3,29.77,NNE,29,4.0,4.0,20,0.00,,SCT150,0.00,VWS V14.01,2013-08-28 01:54:00,
2013-08-27 18:59:00,77.2,33.0,29.77,NE,36,3.1,3.1,20,0.00,,SCT150,0.00,VWS V14.01,2013-08-28 01:59:00,
2013-08-27 19:05:00,76.8,34.0,29.80,NE,39,2.2,2.2,21,0.00,,SCT150,0.00,VWS V14.01,2013-08-28 02:05:00,
2013-08-27 19:09:00,76.5,33.7,29.80,NNE,33,3.1,3.1,21,0.00,,SCT150,0.00,VWS V14.01,2013-08-28 02:09:00,
2013-08-27 19:15:00,75.9,33.2,29.80,NE,41,2.2,2.2,21,0.00,,SCT150,0.00,VWS V14.01,2013-08-28 02:15:00,
2013-08-27 19:20:00,75.4,32.8,29.77,North,6,2.2,2.2,21,0.00,,SCT150,0.00,VWS V14.01,2013-08-28 02:20:00,
2013-08-27 19:25:00,74.8,32.3,29.77,NE,36,2.2,2.7,21,0.00,,SCT150,0.00,VWS V14.01,2013-08-28 02:25:00,
2013-08-27 19:30:00,74.1,31.7,29.77,NE,44,2.7,2.7,21,0.00,,SCT150,0.00,VWS V14.01,2013-08-28 02:30:00,
2013-08-27 19:35:00,73.8,31.4,29.77,NE,47,4.0,4.0,21,0.00,,SCT150,0.00,VWS V14.01,2013-08-28 02:35:00,
2013-08-27 19:40:00,73.8,31.4,29.77,NNE,30,0.0,2.2,21,0.00,,SCT150,0.00,VWS V14.01,2013-08-28 02:40:00,
2013-08-27 19:45:00,73.4,31.1,29.77,NE,44,2.7,2.7,21,0.00,,SCT150,0.00,VWS V14.01,2013-08-28 02:45:00,
2013-08-27 19:50:00,72.9,31.8,29.80,NE,37,0.0,2.2,22,0.00,,SCT150,0.00,VWS V14.01,2013-08-28 02:50:00,
2013-08-27 19:55:00,72.3,31.4,29.80,NE,41,4.0,4.0,22,0.00,,SCT150,0.00,VWS V14.01,2013-08-28 02:55:00,
2013-08-27 20:00:00,72.0,31.1,29.80,NE,41,0.0,2.2,22,0.00,,SCT150,0.00,VWS V14.01,2013-08-28 03:00:00,
2013-08-27 20:05:00,71.4,31.7,29.80,NE,41,0.0,0.0,23,0.00,,SCT150,0.00,VWS V14.01,2013-08-28 03:05:00,
2013-08-27 20:10:00,70.9,31.3,29.80,NE,43,0.0,0.0,23,0.00,,SCT150,0.00,VWS V14.01,2013-08-28 03:10:00,
2013-08-27 20:15:00,70.7,31.1,29.80,NE,43,0.0,0.0,23,0.00,,SCT150,0.00,VWS V14.01,2013-08-28 03:15:00,
2013-08-27 20:20:00,70.2,30.7,29.77,NE,43,0.0,0.0,23,0.00,,SCT150,0.00,VWS V14.01,2013-08-28 03:20:00,
2013-08-27 20:25:00,69.8,30.4,29.77,ESE,111,2.7,2.7,23,0.00,,SCT150,0.00,VWS V14.01,2013-08-28 03:25:00,
2013-08-27 20:30:00,70.0,30.5,29.77,ESE,111,0.0,0.0,23,0.00,,SCT150,0.00,VWS V14.01,2013-08-28 03:30:00,
2013-08-27 20:35:00,69.8,30.4,29.80,ESE,111,0.0,0.0,23,0.00,,SCT150,0.00,VWS V14.01,2013-08-28 03:35:00,
2013-08-27 20:40:00,70.0,30.5,29.80,ESE,111,2.2,2.7,23,0.00,,SCT150,0.00,VWS V14.01,2013-08-28 03:40:00,
2013-08-27 20:45:00,70.0,30.5,29.80,ESE,111,3.1,3.1,23,0.00,,SCT150,0.00,VWS V14.01,2013-08-28 03:45:00,
2013-08-27 20:50:00,69.8,31.4,29.80,SE,137,0.0,0.0,24,0.00,,SCT150,0.00,VWS V14.01,2013-08-28 03:50:00,
2013-08-27 20:55:00,69.3,32.0,29.80,SE,137,0.0,0.0,25,0.00,,SCT150,0.00,VWS V14.01,2013-08-28 03:55:00,
2013-08-27 21:00:00,68.9,31.7,29.80,SE,137,0.0,0.0,25,0.00,,SCT150,0.00,VWS V14.01,2013-08-28 04:00:00,
2013-08-27 21:01:00,68.7,31.5,29.80,SE,137,0.0,0.0,25,0.00,,SCT150,0.00,VWS V14.01,2013-08-28 04:01:00,
2013-08-27 21:06:00,68.4,32.2,29.80,SE,137,0.0,0.0,26,0.00,,FEW140,0.00,VWS V14.01,2013-08-28 04:06:00,
2013-08-27 21:11:00,68.2,33.9,29.80,SE,137,0.0,0.0,28,0.00,,FEW140,0.00,VWS V14.01,2013-08-28 04:11:00,
2013-08-27 21:14:00,67.6,33.4,29.80,SE,137,0.0,0.0,28,0.00,,FEW140,0.00,VWS V14.01,2013-08-28 04:14:00,
2013-08-27 21:19:00,67.1,34.7,29.80,SE,137,0.0,0.0,30,0.00,,FEW140,0.00,VWS V14.01,2013-08-28 04:19:00,
2013-08-27 21:24:00,66.6,35.8,29.80,SE,137,0.0,0.0,32,0.00,,FEW140,0.00,VWS V14.01,2013-08-28 04:24:00,
2013-08-27 21:29:00,66.0,36.1,29.80,SE,137,0.0,0.0,33,0.00,,FEW140,0.00,VWS V14.01,2013-08-28 04:29:00,
2013-08-27 21:34:00,65.5,35.6,29.80,SE,137,0.0,0.0,33,0.00,,FEW140,0.00,VWS V14.01,2013-08-28 04:34:00,
2013-08-27 21:40:00,65.1,36.1,29.80,SE,137,0.0,0.0,34,0.00,,FEW140,0.00,VWS V14.01,2013-08-28 04:40:00,
2013-08-27 21:45:00,64.9,35.2,29.80,SE,137,0.0,0.0,33,0.00,,FEW140,0.00,VWS V14.01,2013-08-28 04:45:00,
2013-08-27 21:50:00,64.9,35.9,29.80,SE,137,0.0,0.0,34,0.00,,FEW140,0.00,VWS V14.01,2013-08-28 04:50:00,
2013-08-27 21:55:00,64.8,35.8,29.80,SE,137,0.0,0.0,34,0.00,,FEW140,0.00,VWS V14.01,2013-08-28 04:55:00,
2013-08-27 22:00:00,64.6,36.3,29.80,SE,137,0.0,0.0,35,0.00,,FEW140,0.00,VWS V14.01,2013-08-28 05:00:00,
2013-08-27 22:05:00,64.4,36.2,29.80,SE,137,0.0,0.0,35,0.00,,FEW140,0.00,VWS V14.01,2013-08-28 05:05:00,
2013-08-27 22:10:00,64.2,36.7,29.80,SE,137,0.0,0.0,36,0.00,,FEW140,0.00,VWS V14.01,2013-08-28 05:10:00,
2013-08-27 22:14:00,64.0,36.6,29.80,SE,137,0.0,0.0,36,0.00,,FEW140,0.00,VWS V14.01,2013-08-28 05:14:00,
2013-08-27 22:19:00,63.7,37.0,29.80,SE,137,0.0,0.0,37,0.00,,FEW140,0.00,VWS V14.01,2013-08-28 05:19:00,
2013-08-27 22:24:00,63.3,36.6,29.80,SE,137,0.0,0.0,37,0.00,,FEW140,0.00,VWS V14.01,2013-08-28 05:24:00,
2013-08-27 22:29:00,63.1,36.5,29.80,SE,137,0.0,0.0,37,0.00,,FEW140,0.00,VWS V14.01,2013-08-28 05:29:00,
2013-08-27 22:34:00,63.0,36.3,29.80,SE,137,0.0,0.0,37,0.00,,FEW140,0.00,VWS V14.01,2013-08-28 05:34:00,
2013-08-27 22:39:00,63.0,37.0,29.80,SE,137,0.0,0.0,38,0.00,,FEW140,0.00,VWS V14.01,2013-08-28 05:39:00,
2013-08-27 22:44:00,63.0,37.0,29.80,SE,137,0.0,0.0,38,0.00,,FEW140,0.00,VWS V14.01,2013-08-28 05:44:00,
2013-08-27 22:49:00,63.0,37.0,29.80,SE,137,0.0,0.0,38,0.00,,FEW140,0.00,VWS V14.01,2013-08-28 05:49:00,
2013-08-27 22:54:00,62.6,36.7,29.80,SE,137,0.0,0.0,38,0.00,,FEW140,0.00,VWS V14.01,2013-08-28 05:54:00,
2013-08-27 22:59:00,62.2,37.6,29.80,SE,137,0.0,0.0,40,0.00,,CLR,0.00,VWS V14.01,2013-08-28 05:59:00,
2013-08-27 23:04:00,61.9,38.0,29.80,SE,137,0.0,0.0,41,0.00,,CLR,0.00,VWS V14.01,2013-08-28 06:04:00,
2013-08-27 23:09:00,61.5,38.2,29.80,SE,137,0.0,0.0,42,0.00,,CLR,0.00,VWS V14.01,2013-08-28 06:09:00,
2013-08-27 23:14:00,61.3,38.7,29.80,SE,137,0.0,0.0,43,0.00,,CLR,0.00,VWS V14.01,2013-08-28 06:14:00,
2013-08-27 23:19:00,61.2,39.1,29.80,SE,137,0.0,0.0,44,0.00,,CLR,0.00,VWS V14.01,2013-08-28 06:19:00,
2013-08-27 23:24:00,61.3,38.1,29.80,SE,137,0.0,0.0,42,0.00,,CLR,0.00,VWS V14.01,2013-08-28 06:24:00,
2013-08-27 23:29:00,61.7,38.4,29.80,SE,137,0.0,2.2,42,0.00,,CLR,0.00,VWS V14.01,2013-08-28 06:29:00,
2013-08-27 23:34:00,61.9,38.6,29.77,SE,137,0.0,0.0,42,0.00,,CLR,0.00,VWS V14.01,2013-08-28 06:34:00,
2013-08-27 23:39:00,62.1,38.7,29.77,SE,137,0.0,0.0,42,0.00,,CLR,0.00,VWS V14.01,2013-08-28 06:39:00,
2013-08-27 23:44:00,62.1,38.7,29.77,SE,137,0.0,0.0,42,0.00,,CLR,0.00,VWS V14.01,2013-08-28 06:44:00,
2013-08-27 23:49:00,62.1,38.7,29.77,SE,137,0.0,0.0,42,0.00,,CLR,0.00,VWS V14.01,2013-08-28 06:49:00,
2013-08-27 23:54:00,61.9,38.6,29.77,SE,137,0.0,0.0,42,0.00,,CLR,0.00,VWS V14.01,2013-08-28 06:54:00,
2013-08-27 23:59:00,61.9,38.6,29.77,SE,137,0.0,0.0,42,0.00,,CLR,0.00,VWS V14.01,2013-08-28 06:59:00,